Terminal Aerodrome Forecast
Issued by NWS Austin/San Antonio, TX

Home | Current Version | Previous Version | Text Only | Print | Product List | Glossary On
Versions: 1 2 3 4 5 6 7 8 9 10 11 12 13 14 15 16 17 18 19 20 21 22
955
FTUS44 KEWX 111408 AAB
TAFSAT
TAF AMD
KSAT 111408Z 1114/1218 00000KT 1/2SM -DZ FG OVC003
     FM111600 VRB04KT 2SM -DZ BR OVC004
     FM111700 22010KT P6SM BKN008 OVC015
     FM112000 21012KT P6SM BKN015
     FM120300 21005KT 5SM BR SCT003 OVC008
     FM120600 24003KT 1SM BR BKN003 OVC006
     FM121000 33005KT 3SM BR BKN010 OVC020=

USA.gov is the U.S. government's official web portal to all federal, state and local government web resources and services.